• In Russia
  • List of Countries
  • For 7 days
  • Water Temperature
  • Weather Map
  • Weather Widgets
  • user-avatar
    Login

    Hourly Weather Zaafrana

    Today, 4 April, Saturday

    Time Temperature Precipitation Wind Pressure Humidity
    00:00 +22°C° 0 mm 3 mps 746 mmHg 33%
    01:00 +21°C° 0 mm 3 mps 745 mmHg 34%
    02:00 +21°C° 0 mm 3 mps 745 mmHg 36%
    03:00 +21°C° 0 mm 3 mps 745 mmHg 36%
    04:00 +21°C° 0 mm 3 mps 745 mmHg 36%
    05:00 +20°C° 0 mm 3 mps 745 mmHg 35%
    06:00 +22°C° 0 mm 3 mps 745 mmHg 32%
    07:00 +23°C° 0 mm 4 mps 745 mmHg 30%
    08:00 +26°C° 0 mm 4 mps 745 mmHg 24%
    09:00 +27°C° 0 mm 4 mps 745 mmHg 21%
    10:00 +29°C° 0 mm 4 mps 745 mmHg 18%
    11:00 +30°C° 0 mm 3 mps 745 mmHg 15%
    12:00 +31°C° 0 mm 3 mps 744 mmHg 14%
    13:00 +33°C° 0 mm 3 mps 743 mmHg 13%
    14:00 +34°C° 0 mm 3 mps 743 mmHg 12%
    15:00 +34°C° 0 mm 3 mps 742 mmHg 14%
    16:00 +33°C° 0 mm 4 mps 742 mmHg 15%
    17:00 +33°C° 0 mm 4 mps 742 mmHg 17%
    18:00 +30°C° 0 mm 4 mps 742 mmHg 19%
    19:00 +29°C° 0 mm 3 mps 742 mmHg 21%
    20:00 +28°C° 0 mm 3 mps 742 mmHg 23%
    21:00 +28°C° 0 mm 3 mps 742 mmHg 22%
    22:00 +27°C° 0 mm 3 mps 742 mmHg 22%
    23:00 +27°C° 0 mm 3 mps 742 mmHg 21%

    Tomorrow, 5 April, Sunday

    Time Temperature Precipitation Wind Pressure Humidity
    00:00 +27°C° 0 mm 3 mps 742 mmHg 21%
    01:00 +26°C° 0 mm 3 mps 741 mmHg 21%
    02:00 +26°C° 0 mm 3 mps 740 mmHg 21%
    03:00 +26°C° 0 mm 2 mps 741 mmHg 20%
    04:00 +26°C° 0 mm 2 mps 741 mmHg 19%
    05:00 +25°C° 0 mm 2 mps 741 mmHg 17%
    06:00 +27°C° 0 mm 3 mps 741 mmHg 16%
    07:00 +29°C° 0 mm 3 mps 742 mmHg 14%
    08:00 +31°C° 0 mm 3 mps 742 mmHg 12%
    09:00 +33°C° 0 mm 4 mps 743 mmHg 11%
    10:00 +35°C° 0 mm 6 mps 743 mmHg 10%
    11:00 +36°C° 0 mm 7 mps 744 mmHg 9%
    12:00 +36°C° 0 mm 7 mps 743 mmHg 10%
    13:00 +36°C° 0 mm 7 mps 743 mmHg 12%
    14:00 +35°C° 0 mm 7 mps 742 mmHg 13%
    15:00 +35°C° 0 mm 6 mps 743 mmHg 16%
    16:00 +34°C° 0 mm 5 mps 743 mmHg 18%
    17:00 +33°C° 0 mm 4 mps 743 mmHg 21%
    18:00 +32°C° 0 mm 4 mps 743 mmHg 24%
    19:00 +29°C° 0 mm 4 mps 744 mmHg 27%
    20:00 +27°C° 0 mm 4 mps 745 mmHg 30%
    21:00 +26°C° 0 mm 4 mps 745 mmHg 38%
    22:00 +23°C° 0 mm 4 mps 745 mmHg 46%
    23:00 +22°C° 0 mm 4 mps 745 mmHg 54%

    Day after tomorrow, 6 April, Monday

    Time Temperature Precipitation Wind Pressure Humidity
    00:00 +21°C° 0 mm 4 mps 745 mmHg 58%
    01:00 +20°C° 0 mm 4 mps 745 mmHg 62%
    02:00 +20°C° 0 mm 4 mps 744 mmHg 66%
    03:00 +19°C° 0 mm 4 mps 744 mmHg 66%
    04:00 +19°C° 0 mm 4 mps 744 mmHg 66%
    05:00 +18°C° 0 mm 4 mps 744 mmHg 67%
    06:00 +19°C° 0 mm 4 mps 745 mmHg 60%
    07:00 +20°C° 0 mm 4 mps 745 mmHg 54%
    08:00 +21°C° 0 mm 4 mps 746 mmHg 48%
    09:00 +22°C° 0 mm 4 mps 746 mmHg 41%
    10:00 +25°C° 0 mm 5 mps 746 mmHg 35%
    11:00 +26°C° 0 mm 5 mps 746 mmHg 28%
    12:00 +27°C° 0 mm 4 mps 745 mmHg 26%
    13:00 +28°C° 0 mm 4 mps 745 mmHg 24%
    14:00 +29°C° 0 mm 4 mps 745 mmHg 22%
    15:00 +29°C° 0 mm 4 mps 744 mmHg 23%
    16:00 +28°C° 0 mm 4 mps 744 mmHg 24%
    17:00 +28°C° 0 mm 5 mps 744 mmHg 25%
    18:00 +27°C° 0 mm 4 mps 744 mmHg 29%
    19:00 +26°C° 0 mm 4 mps 745 mmHg 32%
    20:00 +24°C° 0 mm 3 mps 745 mmHg 35%
    21:00 +22°C° 0 mm 4 mps 745 mmHg 41%
    22:00 +21°C° 0 mm 4 mps 745 mmHg 46%
    23:00 +20°C° 0 mm 5 mps 745 mmHg 52%

    7 April, Tuesday

    Time Temperature Precipitation Wind Pressure Humidity
    00:00 +20°C° 0 mm 5 mps 745 mmHg 54%
    01:00 +19°C° 0 mm 4 mps 745 mmHg 56%
    02:00 +18°C° 0 mm 4 mps 745 mmHg 59%
    03:00 +18°C° 0 mm 4 mps 745 mmHg 56%
    04:00 +18°C° 0 mm 3 mps 745 mmHg 53%
    05:00 +18°C° 0 mm 3 mps 745 mmHg 50%
    06:00 +18°C° 0 mm 3 mps 745 mmHg 46%
    07:00 +19°C° 0 mm 4 mps 745 mmHg 42%
    08:00 +20°C° 0 mm 4 mps 745 mmHg 38%
    09:00 +21°C° 0 mm 4 mps 745 mmHg 35%
    10:00 +22°C° 0 mm 4 mps 745 mmHg 32%
    11:00 +25°C° 0 mm 4 mps 745 mmHg 29%
    12:00 +25°C° 0 mm 4 mps 745 mmHg 27%
    13:00 +26°C° 0 mm 5 mps 744 mmHg 26%
    14:00 +27°C° 0 mm 5 mps 744 mmHg 24%
    15:00 +26°C° 0 mm 5 mps 744 mmHg 24%
    16:00 +26°C° 0 mm 5 mps 744 mmHg 25%
    17:00 +26°C° 0 mm 5 mps 743 mmHg 25%
    18:00 +23°C° 0 mm 5 mps 744 mmHg 28%
    19:00 +22°C° 0 mm 5 mps 744 mmHg 30%
    20:00 +21°C° 0 mm 4 mps 745 mmHg 33%
    21:00 +20°C° 0 mm 4 mps 745 mmHg 40%
    22:00 +19°C° 0 mm 4 mps 745 mmHg 47%
    23:00 +18°C° 0 mm 4 mps 745 mmHg 53%

    8 April, Wednesday

    Time Temperature Precipitation Wind Pressure Humidity
    00:00 +18°C° 0 mm 4 mps 745 mmHg 56%
    01:00 +17°C° 0 mm 3 mps 745 mmHg 58%
    02:00 +17°C° 0 mm 2 mps 745 mmHg 60%
    03:00 +16°C° 0 mm 2 mps 745 mmHg 60%
    04:00 +16°C° 0 mm 2 mps 745 mmHg 60%
    05:00 +16°C° 0 mm 2 mps 745 mmHg 60%
    06:00 +17°C° 0 mm 2 mps 745 mmHg 55%
    07:00 +18°C° 0 mm 2 mps 745 mmHg 49%
    08:00 +19°C° 0 mm 2 mps 745 mmHg 44%
    09:00 +20°C° 0 mm 3 mps 745 mmHg 39%
    10:00 +21°C° 0 mm 4 mps 745 mmHg 34%
    11:00 +23°C° 0 mm 5 mps 745 mmHg 30%
    12:00 +23°C° 0 mm 5 mps 744 mmHg 29%
    13:00 +25°C° 0 mm 5 mps 744 mmHg 28%
    14:00 +24°C° 0 mm 6 mps 743 mmHg 27%
    15:00 +25°C° 0 mm 5 mps 743 mmHg 28%
    16:00 +25°C° 0 mm 5 mps 743 mmHg 28%
    17:00 +23°C° 0 mm 5 mps 743 mmHg 29%
    18:00 +23°C° 0 mm 4 mps 743 mmHg 32%
    19:00 +22°C° 0 mm 4 mps 744 mmHg 35%
    20:00 +21°C° 0 mm 3 mps 744 mmHg 38%
    21:00 +20°C° 0 mm 3 mps 744 mmHg 44%
    22:00 +19°C° 0 mm 3 mps 744 mmHg 50%
    23:00 +18°C° 0 mm 3 mps 744 mmHg 56%

    9 April, Thursday

    Time Temperature Precipitation Wind Pressure Humidity
    00:00 +18°C° 0 mm 3 mps 744 mmHg 60%
    01:00 +17°C° 0 mm 2 mps 744 mmHg 64%
    02:00 +17°C° 0 mm 2 mps 744 mmHg 68%
    03:00 +16°C° 0 mm 2 mps 744 mmHg 69%
    04:00 +16°C° 0 mm 2 mps 744 mmHg 71%
    05:00 +16°C° 0 mm 2 mps 744 mmHg 72%
    06:00 +16°C° 0 mm 2 mps 744 mmHg 67%
    07:00 +18°C° 0 mm 1 mps 744 mmHg 61%
    08:00 +19°C° 0 mm 1 mps 744 mmHg 55%
    09:00 +19°C° 0 mm 2 mps 744 mmHg 49%
    10:00 +20°C° 0 mm 3 mps 744 mmHg 43%
    11:00 +21°C° 0 mm 3 mps 744 mmHg 37%
    12:00 +22°C° 0 mm 4 mps 744 mmHg 35%
    13:00 +23°C° 0 mm 4 mps 743 mmHg 34%
    14:00 +23°C° 0 mm 5 mps 743 mmHg 32%
    15:00 +23°C° 0 mm 4 mps 743 mmHg 32%
    16:00 +23°C° 0 mm 4 mps 743 mmHg 33%
    17:00 +22°C° 0 mm 4 mps 742 mmHg 34%
    18:00 +22°C° 0 mm 4 mps 743 mmHg 37%
    19:00 +21°C° 0 mm 4 mps 743 mmHg 41%
    20:00 +20°C° 0 mm 4 mps 743 mmHg 45%
    21:00 +19°C° 0 mm 4 mps 744 mmHg 48%
    22:00 +19°C° 0 mm 3 mps 744 mmHg 51%
    23:00 +18°C° 0 mm 3 mps 744 mmHg 53%
    Show more